Time,TemperatureF,DewpointF,PressureIn,WindDirection,WindDirectionDegrees,WindSpeedMPH,WindSpeedGustMPH,Humidity,HourlyPrecipIn,Conditions,Clouds,dailyrainin,SoftwareType,DateUTC
2013-09-12 00:05:00,70.5,66.8,30.00,ESE,112,0.0,-999.0,88,-99.99,,,0.00,Acu-Link.com,2013-09-12 04:05:00,
2013-09-12 00:20:00,70.3,66.6,29.99,West,270,0.0,-999.0,88,-99.99,,,0.00,Acu-Link.com,2013-09-12 04:20:00,
2013-09-12 00:35:00,70.2,66.5,29.99,West,270,0.0,-999.0,88,-99.99,,,0.00,Acu-Link.com,2013-09-12 04:35:00,
2013-09-12 00:50:00,69.8,66.1,29.98,East,90,0.0,-999.0,88,-99.99,,,0.00,Acu-Link.com,2013-09-12 04:50:00,
2013-09-12 01:05:00,69.6,65.9,29.98,ESE,112,0.0,-999.0,88,-99.99,,,0.00,Acu-Link.com,2013-09-12 05:05:00,
2013-09-12 01:20:00,69.3,65.6,29.97,ESE,112,0.0,-999.0,88,-99.99,,,0.00,Acu-Link.com,2013-09-12 05:20:00,
2013-09-12 01:35:00,69.1,65.4,29.97,ESE,112,0.0,-999.0,88,-99.99,,,0.00,Acu-Link.com,2013-09-12 05:35:00,
2013-09-12 01:50:00,68.9,65.2,29.97,West,270,0.0,-999.0,88,-99.99,,,0.00,Acu-Link.com,2013-09-12 05:50:00,
2013-09-12 02:06:00,68.9,65.2,29.97,West,270,0.0,-999.0,88,-99.99,,,0.00,Acu-Link.com,2013-09-12 06:06:00,
2013-09-12 02:21:00,68.9,65.2,29.96,SE,135,0.0,-999.0,88,-99.99,,,0.00,Acu-Link.com,2013-09-12 06:21:00,
2013-09-12 02:36:00,68.9,65.2,29.96,East,90,0.0,-999.0,88,-99.99,,,0.00,Acu-Link.com,2013-09-12 06:36:00,
2013-09-12 02:51:00,68.9,65.2,29.96,NNE,22,0.0,-999.0,88,-99.99,,,0.00,Acu-Link.com,2013-09-12 06:51:00,
2013-09-12 03:06:00,68.7,65.0,29.96,NNE,22,0.0,-999.0,88,-99.99,,,0.00,Acu-Link.com,2013-09-12 07:06:00,
2013-09-12 03:21:00,68.7,65.0,29.96,West,270,0.0,-999.0,88,-99.99,,,0.00,Acu-Link.com,2013-09-12 07:21:00,
2013-09-12 03:36:00,68.7,65.0,29.96,West,270,0.0,-999.0,88,-99.99,,,0.00,Acu-Link.com,2013-09-12 07:36:00,
2013-09-12 03:51:00,68.9,65.2,29.95,WNW,292,0.0,-999.0,88,-99.99,,,0.00,Acu-Link.com,2013-09-12 07:51:00,
2013-09-12 04:07:00,68.9,65.2,29.96,WNW,292,0.0,-999.0,88,-99.99,,,0.00,Acu-Link.com,2013-09-12 08:07:00,
2013-09-12 04:22:00,68.9,65.2,29.95,East,90,0.0,-999.0,88,-99.99,,,0.00,Acu-Link.com,2013-09-12 08:22:00,
2013-09-12 04:37:00,69.1,65.7,29.95,WNW,292,0.0,-999.0,89,-99.99,,,0.00,Acu-Link.com,2013-09-12 08:37:00,
2013-09-12 04:53:00,69.4,66.0,29.95,ESE,112,0.0,-999.0,89,-99.99,,,0.00,Acu-Link.com,2013-09-12 08:53:00,
2013-09-12 05:08:00,69.6,66.2,29.95,ESE,112,0.0,-999.0,89,-99.99,,,0.00,Acu-Link.com,2013-09-12 09:08:00,
2013-09-12 05:23:00,69.8,66.4,29.95,WNW,292,0.0,-999.0,89,-99.99,,,0.00,Acu-Link.com,2013-09-12 09:23:00,
2013-09-12 05:38:00,69.6,66.2,29.95,WNW,292,0.0,-999.0,89,-99.99,,,0.00,Acu-Link.com,2013-09-12 09:38:00,
2013-09-12 05:53:00,69.3,65.9,29.95,WNW,292,0.0,-999.0,89,-99.99,,,0.00,Acu-Link.com,2013-09-12 09:53:00,
2013-09-12 06:08:00,68.9,65.5,29.95,WNW,292,0.0,-999.0,89,-99.99,,,0.00,Acu-Link.com,2013-09-12 10:08:00,
2013-09-12 06:23:00,68.7,65.3,29.95,WNW,292,0.0,-999.0,89,-99.99,,,0.00,Acu-Link.com,2013-09-12 10:23:00,
2013-09-12 06:38:00,68.5,64.8,29.95,WNW,292,0.0,-999.0,88,-99.99,,,0.00,Acu-Link.com,2013-09-12 10:38:00,
2013-09-12 06:54:00,68.4,65.0,29.95,WNW,292,0.0,-999.0,89,-99.99,,,0.00,Acu-Link.com,2013-09-12 10:54:00,
2013-09-12 07:09:00,68.0,64.6,29.95,WNW,292,0.0,-999.0,89,-99.99,,,0.00,Acu-Link.com,2013-09-12 11:09:00,
2013-09-12 07:24:00,68.2,64.8,29.95,WNW,292,0.0,-999.0,89,-99.99,,,0.00,Acu-Link.com,2013-09-12 11:24:00,
2013-09-12 07:39:00,68.4,65.0,29.94,East,90,0.0,-999.0,89,-99.99,,,0.00,Acu-Link.com,2013-09-12 11:39:00,
2013-09-12 07:54:00,68.5,65.1,29.95,ESE,112,0.0,-999.0,89,-99.99,,,0.00,Acu-Link.com,2013-09-12 11:54:00,
2013-09-12 08:09:00,68.9,65.5,29.94,ESE,112,0.0,-999.0,89,-99.99,,,0.00,Acu-Link.com,2013-09-12 12:09:00,
2013-09-12 08:25:00,69.6,66.2,29.94,WNW,292,0.0,-999.0,89,-99.99,,,0.00,Acu-Link.com,2013-09-12 12:25:00,
2013-09-12 08:40:00,70.9,67.5,29.94,South,180,0.0,-999.0,89,-99.99,,,0.00,Acu-Link.com,2013-09-12 12:40:00,
2013-09-12 08:55:00,72.0,68.6,29.93,NE,45,0.0,-999.0,89,-99.99,,,0.00,Acu-Link.com,2013-09-12 12:55:00,
2013-09-12 09:10:00,73.4,72.8,29.93,West,270,0.0,-999.0,98,-99.99,,,0.00,Acu-Link.com,2013-09-12 13:10:00,
2013-09-12 09:25:00,74.7,69.9,29.93,West,270,1.1,-999.0,85,-99.99,,,0.00,Acu-Link.com,2013-09-12 13:25:00,
2013-09-12 09:40:00,76.8,69.8,29.93,NW,315,0.0,-999.0,79,-99.99,,,0.00,Acu-Link.com,2013-09-12 13:40:00,
2013-09-12 09:55:00,78.4,69.8,29.93,West,270,1.7,-999.0,75,-99.99,,,0.00,Acu-Link.com,2013-09-12 13:55:00,
2013-09-12 10:10:00,81.3,69.3,29.92,West,270,2.7,-999.0,67,-99.99,,,0.00,Acu-Link.com,2013-09-12 14:10:00,
2013-09-12 10:25:00,83.1,70.5,29.92,NNW,337,0.0,-999.0,66,-99.99,,,0.00,Acu-Link.com,2013-09-12 14:25:00,
2013-09-12 10:41:00,84.4,70.4,29.92,SE,135,0.0,-999.0,63,-99.99,,,0.00,Acu-Link.com,2013-09-12 14:41:00,
2013-09-12 10:56:00,85.5,69.5,29.91,SSE,157,1.7,-999.0,59,-99.99,,,0.00,Acu-Link.com,2013-09-12 14:56:00,
2013-09-12 11:11:00,86.2,68.6,29.91,West,270,2.7,-999.0,56,-99.99,,,0.00,Acu-Link.com,2013-09-12 15:11:00,
2013-09-12 11:26:00,87.6,68.9,29.91,SSW,202,2.2,-999.0,54,-99.99,,,0.00,Acu-Link.com,2013-09-12 15:26:00,
2013-09-12 11:41:00,88.5,69.1,29.90,WNW,292,1.1,-999.0,53,-99.99,,,0.00,Acu-Link.com,2013-09-12 15:41:00,
2013-09-12 11:56:00,88.9,68.4,29.90,West,270,1.7,-999.0,51,-99.99,,,0.00,Acu-Link.com,2013-09-12 15:56:00,
2013-09-12 12:11:00,89.2,68.1,29.90,ENE,67,2.7,-999.0,50,-99.99,,,0.00,Acu-Link.com,2013-09-12 16:11:00,
2013-09-12 12:27:00,90.7,68.9,29.89,West,270,1.1,-999.0,49,-99.99,,,0.00,Acu-Link.com,2013-09-12 16:27:00,
2013-09-12 12:42:00,90.1,68.9,29.89,SSW,202,1.1,-999.0,50,-99.99,,,0.00,Acu-Link.com,2013-09-12 16:42:00,
2013-09-12 12:57:00,90.5,68.7,29.88,ESE,112,0.0,-999.0,49,-99.99,,,0.00,Acu-Link.com,2013-09-12 16:57:00,
2013-09-12 13:12:00,91.2,68.1,29.87,SSW,202,1.1,-999.0,47,-99.99,,,0.00,Acu-Link.com,2013-09-12 17:12:00,
2013-09-12 13:27:00,93.6,69.0,29.86,West,270,1.1,-999.0,45,-99.99,,,0.00,Acu-Link.com,2013-09-12 17:27:00,
2013-09-12 13:42:00,93.4,68.8,29.87,South,180,0.0,-999.0,45,-99.99,,,0.00,Acu-Link.com,2013-09-12 17:42:00,
2013-09-12 13:57:00,95.2,67.0,29.85,SW,225,1.7,-999.0,40,-99.99,,,0.00,Acu-Link.com,2013-09-12 17:57:00,
2013-09-12 14:12:00,93.2,68.0,29.84,West,270,1.7,-999.0,44,-99.99,,,0.00,Acu-Link.com,2013-09-12 18:12:00,
2013-09-12 14:27:00,92.3,67.8,29.82,South,180,1.7,-999.0,45,-99.99,,,0.00,Acu-Link.com,2013-09-12 18:27:00,
2013-09-12 14:43:00,95.5,66.5,29.82,SW,225,0.0,-999.0,39,-99.99,,,0.00,Acu-Link.com,2013-09-12 18:43:00,
2013-09-12 14:58:00,90.0,69.4,29.82,NE,45,1.7,-999.0,51,-99.99,,,0.00,Acu-Link.com,2013-09-12 18:58:00,
2013-09-12 15:13:00,95.5,68.7,29.81,NNW,337,1.1,-999.0,42,-99.99,,,0.00,Acu-Link.com,2013-09-12 19:13:00,
2013-09-12 15:28:00,95.7,67.5,29.81,WNW,292,2.2,-999.0,40,-99.99,,,0.00,Acu-Link.com,2013-09-12 19:28:00,
2013-09-12 15:43:00,86.4,66.1,29.82,ESE,112,2.2,-999.0,51,-99.99,,,0.00,Acu-Link.com,2013-09-12 19:43:00,
2013-09-12 15:58:00,81.3,66.5,29.82,North,0,2.7,-999.0,61,-99.99,,,0.00,Acu-Link.com,2013-09-12 19:58:00,
2013-09-12 16:13:00,79.2,66.0,29.81,SW,225,1.7,-999.0,64,-99.99,,,0.00,Acu-Link.com,2013-09-12 20:13:00,
2013-09-12 16:28:00,77.4,66.4,29.81,NE,45,0.0,-999.0,69,-99.99,,,0.00,Acu-Link.com,2013-09-12 20:28:00,
2013-09-12 16:43:00,75.6,66.3,29.79,WNW,292,1.1,-999.0,73,-99.99,,,0.00,Acu-Link.com,2013-09-12 20:43:00,
2013-09-12 16:59:00,75.4,66.5,29.78,WSW,247,0.0,-999.0,74,-99.99,,,0.00,Acu-Link.com,2013-09-12 20:59:00,
2013-09-12 17:14:00,75.7,67.2,29.78,SW,225,0.0,-999.0,75,-99.99,,,0.00,Acu-Link.com,2013-09-12 21:14:00,
2013-09-12 17:29:00,76.8,68.6,29.77,WSW,247,0.0,-999.0,76,-99.99,,,0.00,Acu-Link.com,2013-09-12 21:29:00,
2013-09-12 17:44:00,78.3,68.9,29.76,SSW,202,0.0,-999.0,73,-99.99,,,0.00,Acu-Link.com,2013-09-12 21:44:00,
2013-09-12 17:59:00,79.2,67.7,29.77,ESE,112,1.7,-999.0,68,-99.99,,,0.00,Acu-Link.com,2013-09-12 21:59:00,
2013-09-12 18:14:00,79.5,67.1,29.78,SW,225,0.0,-999.0,66,-99.99,,,0.00,Acu-Link.com,2013-09-12 22:14:00,
2013-09-12 18:30:00,80.2,68.7,29.76,South,180,0.0,-999.0,68,-99.99,,,0.00,Acu-Link.com,2013-09-12 22:30:00,
2013-09-12 18:45:00,80.1,69.0,29.78,West,270,0.0,-999.0,69,-99.99,,,0.00,Acu-Link.com,2013-09-12 22:45:00,
2013-09-12 19:00:00,78.6,68.8,29.77,West,270,0.0,-999.0,72,-99.99,,,0.00,Acu-Link.com,2013-09-12 23:00:00,
2013-09-12 19:15:00,78.1,68.3,29.77,West,270,0.0,-999.0,72,-99.99,,,0.00,Acu-Link.com,2013-09-12 23:15:00,
2013-09-12 19:30:00,77.0,67.7,29.75,WNW,292,0.0,-999.0,73,-99.99,,,0.00,Acu-Link.com,2013-09-12 23:30:00,
2013-09-12 19:45:00,75.9,67.8,29.76,East,90,0.0,-999.0,76,-99.99,,,0.00,Acu-Link.com,2013-09-12 23:45:00,
2013-09-12 20:00:00,75.2,68.2,29.75,West,270,0.0,-999.0,79,-99.99,,,0.00,Acu-Link.com,2013-09-13 00:00:00,
2013-09-12 20:16:00,74.3,68.1,29.76,SE,135,0.0,-999.0,81,-99.99,,,0.00,Acu-Link.com,2013-09-13 00:16:00,
2013-09-12 20:31:00,73.9,68.0,29.76,SE,135,0.0,-999.0,82,-99.99,,,0.00,Acu-Link.com,2013-09-13 00:31:00,
2013-09-12 20:46:00,73.8,68.7,29.76,NNE,22,0.0,-999.0,84,-99.99,,,0.00,Acu-Link.com,2013-09-13 00:46:00,
2013-09-12 21:01:00,73.6,68.8,29.78,NE,45,0.0,-999.0,85,-99.99,,,0.00,Acu-Link.com,2013-09-13 01:01:00,
2013-09-12 21:16:00,73.6,68.5,29.78,SE,135,0.0,-999.0,84,-99.99,,,0.00,Acu-Link.com,2013-09-13 01:16:00,
2013-09-12 21:31:00,73.8,69.0,29.78,NW,315,0.0,-999.0,85,-99.99,,,0.00,Acu-Link.com,2013-09-13 01:31:00,
2013-09-12 21:46:00,73.6,68.8,29.78,NW,315,0.0,-999.0,85,-99.99,,,0.00,Acu-Link.com,2013-09-13 01:46:00,
2013-09-12 22:01:00,73.2,68.8,29.78,East,90,0.0,-999.0,86,-99.99,,,0.00,Acu-Link.com,2013-09-13 02:01:00,
2013-09-12 22:16:00,72.9,68.5,29.78,East,90,0.0,-999.0,86,-99.99,,,0.00,Acu-Link.com,2013-09-13 02:16:00,
2013-09-12 22:32:00,72.5,68.4,29.77,West,270,0.0,-999.0,87,-99.99,,,0.00,Acu-Link.com,2013-09-13 02:32:00,
2013-09-12 22:47:00,72.3,68.2,29.77,West,270,0.0,-999.0,87,-99.99,,,0.00,Acu-Link.com,2013-09-13 02:47:00,
2013-09-12 23:02:00,72.1,68.3,29.77,East,90,0.0,-999.0,88,-99.99,,,0.00,Acu-Link.com,2013-09-13 03:02:00,
2013-09-12 23:17:00,71.6,67.9,29.76,NE,45,0.0,-999.0,88,-99.99,,,0.00,Acu-Link.com,2013-09-13 03:17:00,
2013-09-12 23:32:00,71.6,67.9,29.76,WNW,292,0.0,-999.0,88,-99.99,,,0.00,Acu-Link.com,2013-09-13 03:32:00,
2013-09-12 23:47:00,71.6,67.9,29.76,East,90,0.0,-999.0,88,-99.99,,,0.00,Acu-Link.com,2013-09-13 03:47:00,